Regional Weather Roundup
Issued by NWS Jackson, KY

Home | Current Version | Previous Version | Graphics & Text | Print | Product List | Glossary On
Versions: 1 2 3 4 5 6 7 8 9 10 11 12 13 14 15 16 17 18 19 20 21 22 23 24 25 26 27 28 29 30 31 32 33 34 35 36 37 38 39 40 41 42 43 44 45 46 47 48 49 50
000
ASUS43 KJKL 251310
RWRJKL

EAST KENTUCKY HOURLY WEATHER ROUNDUP
NATIONAL WEATHER SERVICE JACKSON KY
800 AM EST SUN FEB 25 2018

NOTE: "FAIR" INDICATES FEW OR NO CLOUDS BELOW 12,000 FEET WITH
NO SIGNIFICANT WEATHER AND/OR OBSTRUCTIONS TO VISIBILITY.

* THESE REPORTS ARE NOT UNDER NWS QUALITY CONTROL AND MAY NOT
  REPORT WEATHER SUCH AS PRECIPITATION AND FOG.

KYZ079-080-083-085-087-088-110-112-115-119-120-251400
...EASTERN KENTUCKY...

CITY           SKY/WX    TMP DP  RH WIND       PRES   REMARKS
JACKSON          N/A     54  51  90 SW10G17   29.95R
LONDON           N/A     54  51  90 SW9G18    30.00R
SOMERSET*      MOCLDY    54  52  94 W10       30.01R
MONTICELLO*    MOCLDY    54  51  90 SW18      30.02R
WILLIAMSBURG*    N/A     54  54 100 SW5       30.02R
MIDDLESBORO*   DRIZZLE   56  54  94 CALM      30.02R
HARLAN APT*    CLOUDY    54  52  94 CALM      30.01R
PIKE CO APT*   CLOUDY    54  54 100 S6        29.96R
BIG SANDY APT*   N/A     56  53  89 SW10      29.94F
MOREHEAD APT*  CLOUDY    57  52  82 SW14G21   29.93R
ASHLAND*       CLOUDY    59  54  83 SW12      29.91R
$$

KYZ035-036-041-042-044-050-067-078-099-251400
...CENTRAL KENTUCKY...

CITY           SKY/WX    TMP DP  RH WIND       PRES   REMARKS
MT STERLING*   CLOUDY    54  50  87 NW16G29   29.97R
FLEMING/MASON* LGT RAIN  54  49  85 W20G28    29.92R
DANVILLE*      CLOUDY    50  43  76 NW16      30.01R
LEXINGTON      CLOUDY    51  43  74 W13G22    29.97R
FRANKFORT        N/A     48  36  63 W9G21     29.97R
LOUISVILLE     MOCLDY    47  38  71 W10       30.01R
LEBANON*         N/A     48  39  71 W16       30.02R
GLASGOW*         N/A     48  41  77 W5        30.04R
BOWLING GREEN    N/A     48  40  73 VRB5      30.06R
$$

KYZ091>093-OHZ055-061-077-WVZ005-015-034-035-042-251400
...SOUTHERN OHIO/WEST VIRGINIA...

CITY           SKY/WX    TMP DP  RH WIND       PRES   REMARKS
COVINGTON      CLOUDY    45  37  73 W13       29.93R
COLUMBUS       MOCLDY    50  42  74 W22G33    29.85R
DAYTON         MOCLDY    43  38  82 W16       29.91R
WILMINGTON       N/A     47  42  83 W18G28    29.90R
HUNTINGTON       N/A     58  52  80 SW12G18   29.89R
CHARLESTON     LGT RAIN  59  54  83 SW8       29.89S
BECKLEY        LGT RAIN  54  51  90 SW6       29.99F
BLUEFIELD      LGT RAIN  52  50  93 W9        30.05R
LOGAN CO APT*  PTSUNNY   55  52  88 S8G15     29.95R
$$

VAZ002-007-008-TNZ017-027-036-066-071-251400
...SOUTHWEST VIRGINIA/EAST TENNESSEE...

CITY           SKY/WX    TMP DP  RH WIND       PRES   REMARKS
WISE*          LGT RAIN  54  50  87 SW9G15    30.02R
JONESVILLE*    LGT RAIN  55  55 100 CALM      30.03S
ABINGDON*      RAIN      59  58  98 W8        30.06R
BRISTOL        LGT RAIN  59  59 100 W3        30.06R
SEVIERVILLE*   PTSUNNY   57  55  94 VRB7G15   30.08R FOG
KNOXVILLE      LGT RAIN  56  55  97 S8        30.06R FOG
LAFOLLETTE*    PTSUNNY   54  52  94 CALM      30.08R
OAK RIDGE      LGT RAIN  56  56 100 S7        30.03R
CROSSVILLE     CLOUDY    50  48  93 W6        30.04R
NASHVILLE      CLOUDY    53  45  74 W8        30.06R
$$

...KEY TO REMARKS...
VSB - VISIBILITY IN MILES
WCI - WIND CHILL INDEX
HX  - HEAT INDEX

$$



USA.gov is the U.S. government's official web portal to all federal, state and local government web resources and services.